Location: Voyageurs National Park
(48.5020°N, 92.9292°W)
Time: 04:01:29
(UTC-06:00)

Cosmos 841 Rocket - Pass Details

Date: 19 January 2018
Orbit: 748 x 771 km, 74.0° (Epoch: 19 February)

Event Time Altitude Azimuth Distance (km) Brightness Sun altitude
Exits shadow 06:54:04 - 335° (NNW) 3,000 6.2 -10.0°
Reaches altitude 10° 06:55:53 10° 334° (NNW) 2,290 5.6 -9.7°
Maximum altitude 07:01:03 76° 250° (WSW) 780 3.4 -8.9°
Drops below altitude 10° 07:06:10 10° 165° (SSE) 2,263 6.5 -8.1°
Sets 07:08:31 0° 164° (SSE) 3,182 7.3 -7.8°
